Date String (YYYY-MM-DD hh:mm:ss) UTC,Instrument flags,Ambient pressure (hPa),Sample flow (lpm),Bypass flow (lpm),Sample temperature (°C),Ambient temperature (°C),ASC tube jacket temperature (°C),LED temperature (°C),Box temperature (°C),Sample RH (%),Span deviation,Mass concentration (μg/m³),Mass concentration (μg/m³),Mass concentration (μg/m³)
DateTimeUTC,F1_M11,P_M11,Q1_M11,Q2_M11,T1_M11,T2_M11,T3_M11,T4_M11,T5_M11,U1_M11,ZSPAN_M11,X0_M11,X2_M11,X1_M11
2021-09-19 12:00:00,,0824.5,4.99,0.00,29.4,27.0,00.0,38.6,30.9,18.7,0000.0,0001.45,0001.02,0000.79
2021-09-19 12:01:00,,0824.4,5.00,0.00,29.3,27.3,00.0,38.6,31.0,18.7,0000.0,0001.52,0001.02,0000.81
2021-09-19 12:02:00,,0824.3,5.00,0.00,29.3,27.6,00.0,38.6,31.0,18.7,0000.0,0001.49,0001.02,0000.81
2021-09-19 12:03:00,,0824.3,5.00,0.00,29.3,27.8,00.0,38.6,31.1,18.7,0000.0,0001.52,0001.04,0000.83
2021-09-19 12:04:00,,0824.4,4.99,0.00,29.4,28.0,00.0,38.6,31.1,18.6,0000.0,0001.48,0001.03,0000.84
2021-09-19 12:05:00,,0824.4,5.01,0.00,29.4,28.1,00.0,38.6,31.1,18.6,0000.0,0001.46,0001.03,0000.85
2021-09-19 12:06:00,,0824.4,4.99,0.00,29.4,28.2,00.0,38.6,31.1,18.6,0000.0,0001.44,0001.04,0000.86
2021-09-19 12:07:00,,0824.4,5.01,0.00,29.4,28.3,00.0,38.6,31.1,18.6,0000.0,0001.49,0001.04,0000.86
2021-09-19 12:08:00,,0824.3,4.99,0.00,29.4,28.4,00.0,38.6,31.1,18.6,0000.0,0001.56,0001.04,0000.87
2021-09-19 12:09:00,,0824.4,5.01,0.00,29.4,28.4,00.0,38.6,31.2,18.6,0000.0,0001.67,0001.05,0000.87
2021-09-19 12:10:00,,0824.3,5.00,0.00,29.4,28.5,00.0,38.6,31.2,18.5,0000.0,0001.71,0001.07,0000.88
2021-09-19 12:11:00,,0824.4,5.00,0.00,29.4,28.5,00.0,38.6,31.2,18.5,0000.0,0001.70,0001.09,0000.90
2021-09-19 12:12:00,,0824.3,5.00,0.00,29.4,28.5,00.0,38.6,31.2,18.5,0000.0,0001.59,0001.08,0000.91
2021-09-19 12:13:00,,0824.3,5.02,0.00,29.4,28.5,00.0,38.6,31.2,18.4,0000.0,0001.56,0001.07,0000.91
2021-09-19 12:14:00,,0824.2,5.00,0.00,29.5,28.6,00.0,38.6,31.2,18.3,0000.0,0001.58,0001.08,0000.91
2021-09-19 12:15:00,,0824.2,5.00,0.00,29.5,28.6,00.0,38.6,31.2,18.3,0000.0,0002.18,0001.11,0000.92
2021-09-19 12:16:00,,0824.3,5.00,0.00,29.5,28.6,00.0,38.6,31.2,18.2,0000.0,0002.32,0001.11,0000.93
2021-09-19 12:17:00,,0824.2,5.01,0.00,29.5,28.7,00.0,38.6,31.2,18.1,0000.0,0002.27,0001.09,0000.94
2021-09-19 12:18:00,,0824.2,4.99,0.00,29.5,28.7,00.0,38.6,31.3,18.1,0000.0,0002.17,0001.09,0000.94
2021-09-19 12:19:00,,0824.3,5.01,0.00,29.5,28.7,00.0,38.6,31.3,18.1,0000.0,0002.13,0001.11,0000.95
2021-09-19 12:20:00,,0824.3,5.01,0.00,29.5,28.7,00.0,38.6,31.3,18.2,0000.0,0002.05,0001.12,0000.95
2021-09-19 12:21:00,,0824.3,5.00,0.00,29.6,28.8,00.0,38.6,31.3,18.2,0000.0,0002.03,0001.10,0000.95
2021-09-19 12:22:00,,0824.2,5.01,0.00,29.6,28.8,00.0,38.6,31.3,18.2,0000.0,0002.03,0001.10,0000.95
2021-09-19 12:23:00,,0824.2,4.99,0.00,29.6,28.8,00.0,38.7,31.3,18.2,0000.0,0002.05,0001.12,0000.95
2021-09-19 12:24:00,,0824.2,5.00,0.00,29.6,28.8,00.0,38.7,31.3,18.1,0000.0,0002.07,0001.13,0000.97
2021-09-19 12:25:00,,0824.2,5.00,0.00,29.6,28.8,00.0,38.7,31.3,18.1,0000.0,0002.07,0001.13,0000.97
2021-09-19 12:26:00,,0824.2,5.00,0.00,29.6,28.8,00.0,38.7,31.3,18.1,0000.0,0001.75,0001.15,0000.98
2021-09-19 12:27:00,,0824.1,5.01,0.00,29.6,28.8,00.0,38.7,31.3,18.1,0000.0,0001.44,0001.16,0000.99
2021-09-19 12:28:00,,0824.1,4.99,0.00,29.6,28.8,00.0,38.7,31.4,18.1,0000.0,0001.52,0001.18,0000.99
2021-09-19 12:29:00,,0824.1,5.01,0.00,29.6,28.9,00.0,38.7,31.4,18.0,0000.0,0001.60,0001.23,0001.01
2021-09-19 12:30:00,,0824.1,5.00,0.00,29.7,28.9,00.0,38.7,31.4,18.0,0000.0,0001.58,0001.22,0001.03
2021-09-19 12:31:00,,0824.1,5.00,0.00,29.7,28.9,00.0,38.7,31.5,17.9,0000.0,0001.61,0001.23,0001.04
2021-09-19 12:32:00,,0824.2,5.00,0.00,29.7,29.0,00.0,38.7,31.5,17.9,0000.0,0001.61,0001.23,0001.05
2021-09-19 12:33:00,,0824.2,5.00,0.00,29.8,29.0,00.0,38.8,31.5,17.8,0000.0,0001.59,0001.23,0001.06
2021-09-19 12:34:00,,0824.2,5.01,0.00,29.8,28.6,00.0,38.8,31.4,17.8,0000.0,0001.60,0001.24,0001.08
2021-09-19 12:35:00,,0824.2,4.98,0.00,29.6,26.7,00.0,38.8,30.9,18.0,0000.0,0001.64,0001.26,0001.08
2021-09-19 12:36:00,,0824.3,5.00,0.00,29.5,26.2,00.0,38.7,30.8,18.1,0000.0,0001.69,0001.29,0001.09
2021-09-19 12:37:00,,0824.3,5.00,0.00,29.4,26.5,00.0,38.7,30.8,17.9,0000.0,0001.72,0001.31,0001.10
2021-09-19 12:38:00,,0824.4,5.02,0.00,29.4,26.9,00.0,38.6,30.9,18.0,0000.0,0001.70,0001.32,0001.11
2021-09-19 12:39:00,,0824.4,4.99,0.00,29.4,27.2,00.0,38.6,31.0,18.0,0000.0,0001.63,0001.31,0001.12
2021-09-19 12:40:00,,0824.4,4.99,0.00,29.4,27.5,00.0,38.6,31.0,18.1,0000.0,0001.61,0001.31,0001.12
2021-09-19 12:41:00,,0824.4,5.01,0.00,29.4,27.8,00.0,38.6,31.1,18.2,0000.0,0001.65,0001.33,0001.13
2021-09-19 12:42:00,,0824.4,5.00,0.00,29.4,28.0,00.0,38.6,31.1,18.1,0000.0,0001.64,0001.33,0001.13
2021-09-19 12:43:00,,0824.4,5.00,0.00,29.5,28.1,00.0,38.6,31.2,18.2,0000.0,0001.72,0001.36,0001.15
2021-09-19 12:44:00,,0824.4,4.99,0.00,29.5,28.3,00.0,38.6,31.2,18.3,0000.0,0002.42,0001.39,0001.16
2021-09-19 12:45:00,,0824.4,5.01,0.00,29.5,28.4,00.0,38.6,31.3,18.3,0000.0,0002.99,0001.40,0001.15
2021-09-19 12:46:00,,0824.5,4.99,0.00,29.5,28.5,00.0,38.6,31.3,18.2,0000.0,0003.19,0001.45,0001.17
2021-09-19 12:47:00,,0824.4,5.01,0.00,29.5,28.5,00.0,38.6,31.3,18.1,0000.0,0003.36,0001.46,0001.18
2021-09-19 12:48:00,,0824.4,4.99,0.00,29.6,28.6,00.0,38.6,31.3,18.1,0000.0,0003.58,0001.43,0001.17
2021-09-19 12:49:00,,0824.5,5.01,0.00,29.6,28.6,00.0,38.6,31.4,18.0,0000.0,0003.56,0001.42,0001.18
2021-09-19 12:50:00,,0824.4,5.00,0.00,29.6,28.7,00.0,38.7,31.4,17.7,0000.0,0003.59,0001.44,0001.19
2021-09-19 12:51:00,,0824.4,5.01,0.00,29.6,28.7,00.0,38.7,31.4,17.9,0000.0,0003.68,0001.46,0001.19
2021-09-19 12:52:00,,0824.4,5.00,0.00,29.6,28.7,00.0,38.7,31.4,18.0,0000.0,0003.72,0001.46,0001.19
2021-09-19 12:53:00,,0824.4,5.00,0.00,29.6,28.8,00.0,38.7,31.4,18.0,0000.0,0003.74,0001.46,0001.18
2021-09-19 12:54:00,,0824.5,5.01,0.00,29.6,28.8,00.0,38.7,31.4,18.0,0000.0,0003.72,0001.46,0001.18
2021-09-19 12:55:00,,0824.5,4.99,0.00,29.7,28.8,00.0,38.7,31.4,17.9,0000.0,0003.17,0001.46,0001.18
2021-09-19 12:56:00,,0824.4,5.00,0.00,29.7,28.8,00.0,38.7,31.4,17.8,0000.0,0002.70,0001.46,0001.18
2021-09-19 12:57:00,,0824.5,5.00,0.00,29.7,28.9,00.0,38.7,31.5,17.7,0000.0,0002.61,0001.47,0001.18
2021-09-19 12:58:00,,0824.4,5.00,0.00,29.7,28.9,00.0,38.7,31.5,17.8,0000.0,0002.50,0001.46,0001.18
2021-09-19 12:59:00,,0824.4,5.01,0.00,29.7,28.9,00.0,38.8,31.5,17.8,0000.0,0002.17,0001.48,0001.19
